Location: Kumla
(59.1265°N, 15.1401°E)
Time: 22:58:59
(UTC+01:00)

Vanguard 2 - All Passes

Search period start: 06 December 2023 00:00
Search period end: 16 December 2023 00:00
Orbit: 552 x 2923 km, 32.9° (Epoch: 06 December)

Date Brightness Start Highest point End Pass type
(mag) Time Alt. Az. Time Alt. Az. Time Alt. Az.
06 Dec - 01:19:10 10° SW 01:23:28 12° SSW 01:27:13 10° S night (unlit)
06 Dec - 19:10:15 10° SSE 19:15:25 12° SSE 19:20:19 10° SE visible
06 Dec - 21:13:06 10° SSW 21:23:22 20° S 21:32:00 10° SE visible
06 Dec - 23:21:55 10° SW 23:31:17 19° SSW 23:38:48 10° SSE visible
07 Dec - 01:35:57 10° SW 01:38:09 11° SW 01:40:13 10° SSW night (unlit)
07 Dec - 19:22:07 10° S 19:30:10 15° SSE 19:37:35 10° SE visible
07 Dec - 21:27:17 10° SW 21:38:16 21° S 21:47:26 10° SE visible
07 Dec - 23:36:55 10° SW 23:46:08 19° SSW 23:53:33 10° SSE visible
08 Dec - 19:35:11 10° SSW 19:44:57 18° SSE 19:53:51 10° ESE visible
08 Dec - 21:41:45 10° SW 21:53:10 23° S 22:02:39 10° SE visible
08 Dec - 23:52:10 10° WSW 00:00:55 18° SSW 00:08:05 10° SSE visible
09 Dec - 17:49:49 10° SSE 17:51:58 10° SE 17:54:07 10° SE visible
09 Dec - 19:48:49 10° SSW 19:59:45 20° SSE 20:09:38 10° ESE visible
09 Dec - 21:56:25 10° SW 22:08:02 23° S 22:17:43 10° SE visible
10 Dec - 00:07:41 10° WSW 00:15:38 16° SSW 00:22:18 10° S visible
10 Dec - 17:59:43 10° SSE 18:06:34 14° SE 18:13:18 10° ESE visible
10 Dec - 20:02:51 10° SSW 20:14:34 22° SSE 20:25:09 10° SE visible
10 Dec - 22:11:17 10° SW 22:22:53 23° S 22:32:35 10° SSE visible
11 Dec - 00:23:35 10° WSW 00:30:16 14° SW 00:36:05 10° S visible
11 Dec - 18:12:14 10° S 18:21:12 16° SSE 18:30:01 10° ESE visible
11 Dec - 20:17:10 10° SW 20:29:24 24° S 20:40:27 10° SE visible
11 Dec - 22:26:19 10° WSW 22:37:41 22° SSW 22:47:17 10° SSE visible
12 Dec - 00:40:14 10° WSW 00:44:51 12° SW 00:49:03 10° SSW night (unlit)
12 Dec - 18:25:35 10° SSW 18:35:53 19° SSE 18:46:03 10° ESE visible
12 Dec - 20:31:43 10° SW 20:44:14 25° S 20:55:34 10° SE visible
12 Dec - 22:41:33 10° WSW 22:52:26 21° SSW 23:01:46 10° SSE visible
13 Dec - 16:40:18 10° SSE 16:43:03 11° SE 16:45:51 10° SE visible
13 Dec - 18:39:25 10° SSW 18:50:36 22° SSE 19:01:43 10° ESE visible
13 Dec - 20:46:28 10° SW 20:59:04 25° S 21:10:32 10° SE visible
13 Dec - 22:56:59 10° WSW 23:07:08 19° SSW 23:15:58 10° S visible
14 Dec - 16:50:55 10° SSE 16:57:33 14° SE 17:04:28 10° ESE visible
14 Dec - 18:53:35 10° SSW 19:05:21 23° SSE 19:17:07 10° ESE visible
14 Dec - 21:01:22 10° SW 21:13:52 25° S 21:25:19 10° SE visible
14 Dec - 23:12:45 10° WSW 23:21:45 17° SSW 23:29:47 10° S visible
15 Dec - 17:03:40 10° S 17:12:06 16° SSE 17:21:04 10° ESE visible
15 Dec - 19:08:01 10° SW 19:20:08 25° S 19:32:20 10° SE visible
15 Dec - 21:16:27 10° WSW 21:28:39 24° SSW 21:39:56 10° SSE visible
15 Dec - 23:28:59 10° WSW 23:36:19 14° SW 23:43:02 10° S visible
